Tracking 30744 objects as of 23-Jun-2025
HD Live streaming from Space Station
objects crossing your sky now

CLUSTER II-FM6

Track CLUSTER II-FM6 now!
CLUSTER II-FM6 is classified as:


NORAD ID: 26410
Int'l Code: 2000-041A
Perigee: 5,170.6 km
Apogee: 126,285.2 km
Inclination: 144.6 °
Period: 3,211.1 minutes
Semi major axis: 72098 km
RCS: 1.9953 m2 (large)
Launch date: July 16, 2000
Source: European Space Agency (ESA)
Launch site: TYURATAM MISSILE AND SPACE COMPLEX (TTMTR)
Your satellite tracking list
Your tracking list is empty




NASA's NSSDC Master Catalog

Two Line Element Set (TLE):
1 26410U 00041A   25176.01051623  .00002340  00000-0  00000-0 0  9996
2 26410 144.5728  12.2850 8399195 227.5867 359.6601  0.44844581 18709
Source of the keplerian elements: AFSPC